Regional Weather Roundup
Issued by NWS

Home | Current Version | Previous Version | Text Only | Print | Product List | Glossary On
Versions: 1 2 3 4 5 6 7 8 9 10 11 12 13 14 15 16 17 18 19 20 21 22 23 24 25 26 27 28 29 30 31 32 33 34 35 36 37 38 39 40 41 42 43 44 45 46 47 48 49 50
000
ASUS45 KSLC 270210
RWRUT

UTAH REGIONAL WEATHER ROUNDUP
NATIONAL WEATHER SERVICE SALT LAKE CITY UT
700 PM MST MON JAN 26 2015

UTZ001>011-023>025-270300-

NORTHERN UTAH

CITY           SKY/WX    TMP DP  RH WIND       PRES   REMARKS
BRIGHAM CITY     N/A     40  35  83 CALM      30.23R
HILL AFB         N/A     36  32  84 W6        30.23R WCI  32
LOGAN          CLEAR     36  31  82 CALM      30.21S
OGDEN            N/A     38  34  85 SW7       30.22R WCI  33
PROVO AIRPORT  CLEAR     39  30  70 VRB3      30.22S
SALT LAKE CITY   N/A     38  33  82 CALM      30.24R
VERNAL         MOCLDY    36  24  62 W6        30.32R WCI  31
WENDOVER         N/A     37  30  75 CALM      30.22S
HEBER CITY       N/A     32  27  80 SW3       30.25R
WEST JORDAN    CLEAR     39  34  81 CALM      30.24R

$$

UTZ012>022-026-027-270300-

SOUTHERN/CENTRAL UTAH

CITY           SKY/WX    TMP DP  RH WIND       PRES   REMARKS
BLANDING         N/A     40  24  52 N5        30.38R
BRYCE CANYON     N/A     32  23  69 CALM      30.31R
CEDAR CITY       N/A     43  31  62 SE5       30.20S
DELTA            N/A     41  33  74 E6        30.21F
MILFORD          N/A     41  32  70 N3        30.20R
MOAB/CYNLANDS  CLEAR     39  27  62 SW5       30.27R
PRICE            N/A     40  24  53 VRB3      30.29S
ST GEORGE        N/A     57  28  33 NE3       30.14S
KANAB            N/A     46  23  39 NE9       30.27R

$$

REGIONAL REPORTS     COLORADO/ARIZONA

CITY           SKY/WX    TMP DP  RH WIND       PRES   REMARKS
CRAIG, CO      PTCLDY    25  21  85 CALM      30.34R
GRAND JUNCTION CLEAR     38  26  62 NW3       30.26R
RIFLE          CLEAR     39  25  57 CALM      30.29R
MONTROSE       PTCLDY    37  23  56 SE7       30.31R WCI  32
CORTEZ         CLEAR     36  24  62 E9        30.33R WCI  29
PAGE, AZ       NOT AVBL
GRAND CANYON     N/A     43  22  43 SE6       30.28R
KINGMAN        CLOUDY    53  31  42 E7        30.14S
FLAGSTAFF      CLOUDY    41  25  53 NE3       30.31R

$$

REGIONAL REPORTS    NEVADA/IDAHO/WYOMING

CITY           SKY/WX    TMP DP  RH WIND       PRES   REMARKS
LAS VEGAS, NV  LGT RAIN  59  46  62 SW9       30.08R
ELY              N/A     37  24  59 S9        30.20R WCI  30
ELKO             N/A     46  31  55 CALM      30.12S
POCATELLO, ID  CLEAR     35  33  92 CALM      30.21F
BURLEY           N/A     41  34  76 E15       30.15S
EVANSTON, WY   PTCLDY    42  29  59 E3        30.29R
ROCK SPRINGS   PTCLDY    43  26  51 SE13      30.28F
KEMMERER       PTCLDY    37  28  70 N5        30.31S WCI  34

$$


USA.gov is the U.S. government's official web portal to all federal, state and local government web resources and services.